TimeCDT,TemperatureF,Dew PointF,Humidity,Sea Level PressureIn,VisibilityMPH,Wind Direction,Wind SpeedMPH,Gust SpeedMPH,PrecipitationIn,Events,Conditions,WindDirDegrees,DateUTC
12:15 AM,71.6,71.6,100,30.06,10.0,Calm,Calm,-,N/A,,Clear,0,2013-09-16 05:15:00
12:35 AM,71.6,71.6,100,30.07,7.0,Calm,Calm,-,N/A,,Clear,0,2013-09-16 05:35:00
12:55 AM,71.6,71.6,100,30.07,10.0,NNE,3.5,-,N/A,,Clear,30,2013-09-16 05:55:00
1:15 AM,71.6,71.6,100,30.08,10.0,Calm,Calm,-,N/A,,Scattered Clouds,0,2013-09-16 06:15:00
1:35 AM,71.6,71.6,100,30.08,10.0,Calm,Calm,-,N/A,,Scattered Clouds,0,2013-09-16 06:35:00
1:55 AM,73.4,71.6,94,30.08,10.0,Calm,Calm,-,N/A,,Overcast,0,2013-09-16 06:55:00
2:15 AM,73.4,68.0,83,30.08,10.0,Calm,Calm,-,N/A,,Overcast,0,2013-09-16 07:15:00
2:35 AM,73.4,68.0,83,30.08,10.0,Calm,Calm,-,N/A,,Overcast,0,2013-09-16 07:35:00
2:55 AM,73.4,68.0,83,30.08,10.0,NNE,4.6,-,N/A,,Overcast,20,2013-09-16 07:55:00
3:15 AM,73.4,68.0,83,30.08,10.0,East,3.5,-,N/A,,Mostly Cloudy,90,2013-09-16 08:15:00
3:35 AM,73.4,68.0,83,30.08,10.0,Calm,Calm,-,N/A,Thunderstorm,Overcast,0,2013-09-16 08:35:00
3:55 AM,73.4,68.0,83,30.08,10.0,Calm,Calm,-,N/A,,Mostly Cloudy,0,2013-09-16 08:55:00
4:15 AM,73.4,68.0,83,30.09,10.0,Calm,Calm,-,N/A,,Scattered Clouds,0,2013-09-16 09:15:00
4:35 AM,73.4,68.0,83,30.09,10.0,Calm,Calm,-,N/A,Thunderstorm,Scattered Clouds,0,2013-09-16 09:35:00
4:55 AM,73.4,68.0,83,30.10,10.0,Calm,Calm,-,N/A,Thunderstorm,Thunderstorm,0,2013-09-16 09:55:00
5:15 AM,71.6,71.6,100,30.12,7.0,NNW,8.1,-,N/A,Rain-Thunderstorm,Light Thunderstorms and Rain,330,2013-09-16 10:15:00
5:35 AM,71.6,71.6,100,30.12,7.0,NNW,4.6,-,N/A,Thunderstorm,Unknown,340,2013-09-16 10:35:00
5:55 AM,71.6,71.6,100,30.13,7.0,NW,4.6,-,N/A,Thunderstorm,Overcast,320,2013-09-16 10:55:00
6:15 AM,69.8,69.8,100,30.14,2.0,North,5.8,-,N/A,Rain-Thunderstorm,Light Thunderstorms and Rain,10,2013-09-16 11:15:00
6:35 AM,69.8,69.8,100,30.14,7.0,North,6.9,-,N/A,Thunderstorm,Overcast,350,2013-09-16 11:35:00
6:55 AM,69.8,69.8,100,30.16,7.0,North,3.5,-,N/A,Thunderstorm,Overcast,10,2013-09-16 11:55:00
7:15 AM,69.8,69.8,100,30.16,7.0,Calm,Calm,-,N/A,Rain,Light Rain,0,2013-09-16 12:15:00
7:35 AM,69.8,69.8,100,30.16,5.0,Calm,Calm,-,N/A,Rain-Thunderstorm,Light Thunderstorms and Rain,0,2013-09-16 12:35:00
7:55 AM,69.8,69.8,100,30.17,5.0,Calm,Calm,-,N/A,Rain-Thunderstorm,Light Thunderstorms and Rain,0,2013-09-16 12:55:00
8:15 AM,69.8,69.8,100,30.19,5.0,Calm,Calm,-,N/A,Rain,Light Rain,0,2013-09-16 13:15:00
8:35 AM,69.8,69.8,100,30.20,4.0,Calm,Calm,-,N/A,,Light Drizzle,0,2013-09-16 13:35:00
8:55 AM,69.8,69.8,100,30.20,5.0,Calm,Calm,-,N/A,,Clear,0,2013-09-16 13:55:00
9:15 AM,69.8,69.8,100,30.20,5.0,Calm,Calm,-,N/A,,Clear,0,2013-09-16 14:15:00
9:35 AM,69.8,69.8,100,30.21,4.0,Calm,Calm,-,N/A,,Light Drizzle,0,2013-09-16 14:35:00
9:55 AM,69.8,69.8,100,30.21,5.0,East,3.5,-,N/A,,Overcast,100,2013-09-16 14:55:00
10:15 AM,71.6,71.6,100,30.21,5.0,Calm,Calm,-,N/A,Rain,Light Rain,0,2013-09-16 15:15:00
10:35 AM,71.6,71.6,100,30.21,5.0,Calm,Calm,-,N/A,Rain,Light Rain,0,2013-09-16 15:35:00
10:55 AM,71.6,71.6,100,30.21,7.0,Calm,Calm,-,N/A,,Overcast,0,2013-09-16 15:55:00
11:15 AM,71.6,71.6,100,30.21,10.0,Calm,Calm,-,N/A,,Overcast,0,2013-09-16 16:15:00
11:35 AM,71.6,71.6,100,30.21,10.0,Calm,Calm,-,N/A,,Overcast,0,2013-09-16 16:35:00
11:55 AM,71.6,71.6,100,30.22,10.0,Calm,Calm,-,N/A,,Overcast,0,2013-09-16 16:55:00
12:15 PM,71.6,71.6,100,30.22,10.0,Calm,Calm,-,N/A,,Overcast,0,2013-09-16 17:15:00
12:35 PM,73.4,71.6,94,30.22,10.0,Calm,Calm,-,N/A,,Overcast,0,2013-09-16 17:35:00
12:55 PM,73.4,73.4,100,30.22,10.0,Calm,Calm,-,N/A,,Scattered Clouds,0,2013-09-16 17:55:00
1:15 PM,75.2,69.8,83,30.20,10.0,Calm,Calm,-,N/A,,Clear,0,2013-09-16 18:15:00
1:35 PM,75.2,69.8,83,30.19,10.0,East,3.5,-,N/A,,Clear,100,2013-09-16 18:35:00
1:55 PM,77.0,68.0,74,30.17,10.0,East,5.8,-,N/A,,Clear,100,2013-09-16 18:55:00
2:15 PM,77.0,69.8,78,30.17,10.0,ESE,4.6,-,N/A,,Clear,110,2013-09-16 19:15:00
2:35 PM,78.8,68.0,69,30.16,10.0,East,4.6,-,N/A,,Clear,80,2013-09-16 19:35:00
2:55 PM,77.0,68.0,74,30.15,10.0,ESE,6.9,-,N/A,,Clear,110,2013-09-16 19:55:00
3:15 PM,77.0,69.8,78,30.14,10.0,ESE,4.6,-,N/A,,Clear,110,2013-09-16 20:15:00
3:35 PM,77.0,69.8,78,30.14,10.0,ENE,3.5,-,N/A,,Scattered Clouds,70,2013-09-16 20:35:00
3:55 PM,77.0,69.8,78,30.14,10.0,ENE,3.5,-,N/A,,Mostly Cloudy,70,2013-09-16 20:55:00
4:15 PM,77.0,68.0,74,30.14,10.0,Calm,Calm,-,N/A,,Overcast,0,2013-09-16 21:15:00
4:35 PM,75.2,69.8,83,30.15,10.0,Calm,Calm,-,N/A,Rain,Light Rain,0,2013-09-16 21:35:00
4:55 PM,73.4,73.4,100,30.14,10.0,North,3.5,-,N/A,Rain,Rain,360,2013-09-16 21:55:00
5:15 PM,73.4,73.4,100,30.14,10.0,NE,3.5,-,N/A,Rain,Light Rain,50,2013-09-16 22:15:00
5:35 PM,73.4,73.4,100,30.14,7.0,NE,3.5,-,N/A,Rain,Rain,50,2013-09-16 22:35:00
5:55 PM,71.6,71.6,100,30.13,10.0,Calm,Calm,-,N/A,,Light Drizzle,0,2013-09-16 22:55:00
6:15 PM,71.6,71.6,100,30.13,7.0,Calm,Calm,-,N/A,Rain,Light Rain,0,2013-09-16 23:15:00
6:35 PM,71.6,71.6,100,30.12,10.0,Calm,Calm,-,N/A,,Overcast,0,2013-09-16 23:35:00
6:55 PM,71.6,71.6,100,30.12,10.0,ESE,4.6,-,N/A,,Mostly Cloudy,110,2013-09-16 23:55:00
7:15 PM,71.6,71.6,100,30.12,10.0,Calm,Calm,-,N/A,,Scattered Clouds,0,2013-09-17 00:15:00
7:35 PM,71.6,71.6,100,30.13,10.0,Calm,Calm,-,N/A,,Scattered Clouds,0,2013-09-17 00:35:00
7:55 PM,71.6,71.6,100,30.13,10.0,Calm,Calm,-,N/A,,Scattered Clouds,0,2013-09-17 00:55:00
8:15 PM,71.6,71.6,100,30.13,10.0,Calm,Calm,-,N/A,,Clear,0,2013-09-17 01:15:00
8:35 PM,71.6,71.6,100,30.13,10.0,Calm,Calm,-,N/A,,Clear,0,2013-09-17 01:35:00
8:55 PM,71.6,71.6,100,30.14,7.0,Calm,Calm,-,N/A,,Clear,0,2013-09-17 01:55:00
9:15 PM,71.6,71.6,100,30.14,5.0,Calm,Calm,-,N/A,,Clear,0,2013-09-17 02:15:00
9:35 PM,71.6,71.6,100,30.14,7.0,Calm,Calm,-,N/A,,Clear,0,2013-09-17 02:35:00
9:55 PM,71.6,71.6,100,30.15,7.0,Calm,Calm,-,N/A,,Clear,0,2013-09-17 02:55:00
10:15 PM,71.6,71.6,100,30.15,5.0,Calm,Calm,-,N/A,,Clear,0,2013-09-17 03:15:00
10:35 PM,71.6,71.6,100,30.15,7.0,NE,3.5,-,N/A,Thunderstorm,Clear,40,2013-09-17 03:35:00
10:55 PM,69.8,69.8,100,30.15,7.0,NE,3.5,-,N/A,,Clear,40,2013-09-17 03:55:00
11:15 PM,69.8,69.8,100,30.16,7.0,Calm,Calm,-,N/A,,Clear,0,2013-09-17 04:15:00
11:35 PM,69.8,69.8,100,30.16,7.0,Calm,Calm,-,N/A,,Clear,0,2013-09-17 04:35:00
11:55 PM,69.8,69.8,100,30.16,7.0,ENE,3.5,-,N/A,,Scattered Clouds,70,2013-09-17 04:55:00